Tillbaka till svenska Fidonet
English   Information   Debug  
FILM   0/18
FNEWS_PUBLISH   4983
FN_SYSOP   42232
FN_SYSOP_OLD1   71952
FTP_FIDO   0/2
FTSC_PUBLIC   0/13976
FUNNY   0/4886
GENEALOGY.EUR   0/71
GET_INFO   105
GOLDED   293/408
HAM   981/16715
HOLYSMOKE   0/6791
HOT_SITES   0/1
HTMLEDIT   0/71
HUB203   466
HUB_100   264
HUB_400   39
HUMOR   0/29
IC   729/2851
INTERNET   0/424
INTERUSER   0/3
IP_CONNECT   719
JAMNNTPD   0/233
JAMTLAND   0/47
KATTY_KORNER   0/41
LAN   0/16
LINUX-USER   0/19
LINUXHELP   0/1155
LINUX   0/22386
LINUX_BBS   0/957
mail   18.68
mail_fore_ok   249
MENSA   125/341
MODERATOR   0/102
MONTE   0/992
MOSCOW_OKLAHOMA   0/1245
MUFFIN   0/783
MUSIC   0/321
N203_STAT   938
N203_SYSCHAT   313
NET203   321
NET204   69
NET_DEV   0/10
NORD.ADMIN   0/101
NORD.CHAT   0/2572
NORD.FIDONET   189
NORD.HARDWARE   0/28
NORD.KULTUR   0/114
NORD.PROG   0/32
NORD.SOFTWARE   0/88
NORD.TEKNIK   0/58
NORD   0/453
OCCULT_CHAT   0/93
OS2BBS   0/787
OS2DOSBBS   0/580
OS2HW   0/42
OS2INET   0/37
OS2LAN   0/134
OS2PROG   0/36
OS2REXX   0/113
OS2USER-L   207
OS2   0/4831
OSDEBATE   0/18996
PASCAL   0/490
PERL   0/457
PHP   0/45
POINTS   0/405
POLITICS   26785/29554
POL_INC   213/14731
PSION   103
R20_ADMIN   1133
R20_AMATORRADIO   0/2
R20_BEST_OF_FIDONET   16
R20_CHAT   0/897
R20_DEPP   0/3
R20_DEV   400
R20_ECHO2   1889
R20_ECHOPRES   0/35
R20_ESTAT   0/719
R20_FIDONETPROG...
...RAM.MYPOINT
  0/2
R20_FIDONETPROGRAM   0/22
R20_FIDONET   0/248
R20_FILEFIND   0/24
R20_FILEFOUND   0/22
R20_HIFI   0/3
R20_INFO2   3782
R20_INTERNET   0/12940
R20_INTRESSE   0/60
R20_INTR_KOM   0/99
R20_KANDIDAT.CHAT   42
R20_KANDIDAT   28
R20_KOM_DEV   112
R20_KONTROLL   0/13360
R20_KORSET   0/18
R20_LOKALTRAFIK   0/24
R20_MODERATOR   0/1852
R20_NC   76
R20_NET200   245
R20_NETWORK.OTH...
...ERNETS
  0/13
R20_OPERATIVSYS...
...TEM.LINUX
  0/44
R20_PROGRAMVAROR   0/1
R20_REC2NEC   534
R20_SFOSM   0/341
R20_SF   0/108
R20_SPRAK.ENGLISH   0/1
R20_SQUISH   107
R20_TEST   2
R20_WORST_OF_FIDONET   20
RAR   0/9
RA_MULTI   106
RA_UTIL   0/162
REGCON.EUR   201/2069
REGCON   0/13
SCIENCE   0/1206
SF   0/239
SHAREWARE_SUPPORT   0/5146
SHAREWRE   0/14
SIMPSONS   0/169
STATS_OLD1   1951/2539.065
STATS_OLD2   0/2530
STATS_OLD3   0/2395.095
STATS_OLD4   0/1692.25
SURVIVOR   0/495
SYSOPS_CORNER   0/3
SYSOP   0/84
TAGLINES   0/112
TEAMOS2   0/4530
TECH   0/2617
TEST.444   0/105
TRAPDOOR   0/19
TREK   0/755
TUB   0/290
UFO   0/40
UNIX   0/1316
USA_EURLINK   0/102
USR_MODEMS   0/1
VATICAN   0/2740
VIETNAM_VETS   0/14
VIRUS   0/378
VIRUS_INFO   0/201
VISUAL_BASIC   0/473
WHITEHOUSE   0/5187
WIN2000   0/101
WIN32   0/30
WIN95   37/4291
WIN95_OLD1   0/70272
WINDOWS   251/1517
WWB_SYSOP   0/419
WWB_TECH   340/810
ZCC-PUBLIC   0/1
ZEC   4

 
4DOS   0/134
ABORTION   0/7
ALASKA_CHAT   0/506
ALLFIX_FILE   0/1313
ALLFIX_FILE_OLD1   0/7997
ALT_DOS   0/152
AMATEUR_RADIO   0/1039
AMIGASALE   0/14
AMIGA   0/331
AMIGA_INT   0/1
AMIGA_PROG   0/20
AMIGA_SYSOP   0/26
ANIME   0/15
ARGUS   0/924
ASCII_ART   0/340
ASIAN_LINK   0/651
ASTRONOMY   0/417
AUDIO   0/92
AUTOMOBILE_RACING   0/105
BABYLON5   0/17862
BAG   135
BATPOWER   306/361
BBBS.ENGLISH   0/382
BBSLAW   0/109
BBS_ADS   0/5290
BBS_INTERNET   0/507
BIBLE   94/3563
BINKD   0/1119
BINKLEY   0/215
BLUEWAVE   0/2173
CABLE_MODEMS   0/25
CBM   0/46
CDRECORD   0/66
CDROM   0/20
CLASSIC_COMPUTER   0/378
COMICS   0/15
CONSPRCY   0/899
COOKING   42010
COOKING_OLD1   0/24719
COOKING_OLD2   20999/40862
COOKING_OLD3   0/37489
COOKING_OLD4   11493/35496
COOKING_OLD5   9370
C_ECHO   0/189
C_PLUSPLUS   0/31
DIRTY_DOZEN   0/201
DOORGAMES   0/2333
DOS_INTERNET   0/196
duplikat   6102
ECHOLIST   11781/18295
EC_SUPPORT   199/318
ELECTRONICS   0/359
ELEKTRONIK.GER   1534
ENET.LINGUISTIC   0/13
ENET.POLITICS   0/4
ENET.SOFT   0/11701
ENET.SYSOP   34335
ENET.TALKS   0/32
ENGLISH_TUTOR   0/2000
EVOLUTION   0/1335
FDECHO   0/217
FDN_ANNOUNCE   4493/7068
FIDONEWS   25122
FIDONEWS_OLD1   0/49742
FIDONEWS_OLD2   0/35949
FIDONEWS_OLD3   0/30874
FIDONEWS_OLD4   0/37224
FIDO_SYSOP   12973
FIDO_UTIL   0/180
FILEFIND   0/209
FILEGATE   0/212
Möte HAM, 16715 texter
 lista första sista föregående nästa
Text 4154, 848 rader
Skriven 2010-11-24 11:01:59 av Amsat List (1:323/120.0)
Ärende: [keps]  orb10328.amsa
=============================
[keps]  orb10328.amsa

Return-Path: <keps-bounces@amsat.org>
X-Rcpt: craig.healy@chowda.com
X-UIDL: 1290613113.27307

SB KEPS @ AMSAT  $ORB10328.O
Orbital Elements  10328.OSCAR

HR AMSAT ORBITAL ELEMENTS FOR OSCAR SATELLITES
FROM WA5QGD FORT WORTH,TX November 24, 2010
BID: ORB10328.O
TO ALL RADIO AMATEURS BT

Satellite: AO-07
Catalog number: 07530
Epoch time:      10327.89485885
Element set:    0936
Inclination:      101.3972 deg
RA of node:       337.5376 deg
Eccentricity:    0.0011788
Arg of perigee:   322.1168 deg
Mean anomaly:     037.9073 deg
Mean motion:   12.53580253 rev/day
Decay rate:       -2.7e-07 rev/day^2
Epoch rev:           64846
Checksum:              325

Satellite: FO-29
Catalog number: 24278
Epoch time:      10327.91500612
Element set:    0464
Inclination:      098.5186 deg
RA of node:       135.0181 deg
Eccentricity:    0.0351445
Arg of perigee:   069.5251 deg
Mean anomaly:     294.3260 deg
Mean motion:   13.52954595 rev/day
Decay rate:       -1.3e-07 rev/day^2
Epoch rev:           70470
Checksum:              299

Satellite: SO-33
Catalog number: 25509
Epoch time:      10326.42688153
Element set:    0843
Inclination:      031.4351 deg
RA of node:       333.6565 deg
Eccentricity:    0.0354238
Arg of perigee:   233.4923 deg
Mean anomaly:     123.2602 deg
Mean motion:   14.28339239 rev/day
Decay rate:        2.0e-08 rev/day^2
Epoch rev:           63069
Checksum:              288

Satellite: RS-22
Catalog number: 27939
Epoch time:      10328.18434683
Element set:     751
Inclination:      097.8679 deg
RA of node:       186.6740 deg
Eccentricity:    0.0012504
Arg of perigee:   275.1789 deg
Mean anomaly:     084.7971 deg
Mean motion:   14.63480625 rev/day
Decay rate:       1.85e-06 rev/day^2
Epoch rev:           38235
Checksum:              347

Satellite: VO-52
Catalog number: 28650
Epoch time:      10327.90172861
Element set:    0655
Inclination:      097.6723 deg
RA of node:       014.9272 deg
Eccentricity:    0.0028210
Arg of perigee:   113.2249 deg
Mean anomaly:     247.1979 deg
Mean motion:   14.81858077 rev/day
Decay rate:       4.10e-06 rev/day^2
Epoch rev:           30034
Checksum:              298

Satellite: SO-67
Catalog number: 35870
Epoch time:      10328.04254510
Element set:     315
Inclination:      097.3116 deg
RA of node:       012.7763 deg
Eccentricity:    0.0001333
Arg of perigee:   251.4644 deg
Mean anomaly:     197.9200 deg
Mean motion:   15.21200028 rev/day
Decay rate:      1.083e-05 rev/day^2
Epoch rev:            6575
Checksum:              262

Satellite: HO-68
Catalog number: 36122
Epoch time:      10328.16917970
Element set:     873
Inclination:      100.4492 deg
RA of node:       026.8270 deg
Eccentricity:    0.0007402
Arg of perigee:   335.0933 deg
Mean anomaly:     024.9817 deg
Mean motion:   13.16282742 rev/day
Decay rate:       -4.5e-07 rev/day^2
Epoch rev:            4526
Checksum:              289

/EX
SB KEPS @ AMSAT  $ORB10328.D
Orbital Elements  10328.MICROS

HR AMSAT ORBITAL ELEMENTS FOR THE MICROSATS
FROM WA5QGD FORT WORTH,TX November 24, 2010
BID: ORB10328.D
TO ALL RADIO AMATEURS BT

Satellite: UO-11
Catalog number: 14781
Epoch time:      10327.73189187
Element set:    0401
Inclination:      098.0345 deg
RA of node:       019.7697 deg
Eccentricity:    0.0010176
Arg of perigee:   083.9534 deg
Mean anomaly:     276.2833 deg
Mean motion:   14.79863362 rev/day
Decay rate:       4.71e-06 rev/day^2
Epoch rev:           43540
Checksum:              318

Satellite: AO-16
Catalog number: 20439
Epoch time:      10327.86205807
Element set:    0052
Inclination:      098.3555 deg
RA of node:       279.6621 deg
Eccentricity:    0.0011821
Arg of perigee:   054.8824 deg
Mean anomaly:     305.3467 deg
Mean motion:   14.31884432 rev/day
Decay rate:        3.2e-07 rev/day^2
Epoch rev:           08823
Checksum:              296

Satellite: LO-19
Catalog number: 20442
Epoch time:      10327.83425363
Element set:     960
Inclination:      098.3181 deg
RA of node:       284.7967 deg
Eccentricity:    0.0012669
Arg of perigee:   049.7956 deg
Mean anomaly:     310.4350 deg
Mean motion:   14.32113195 rev/day
Decay rate:       -6.0e-08 rev/day^2
Epoch rev:            8840
Checksum:              306

Satellite: AO-27
Catalog number: 22825
Epoch time:      10327.83226848
Element set:    0683
Inclination:      098.5062 deg
RA of node:       271.7998 deg
Eccentricity:    0.0008630
Arg of perigee:   154.0368 deg
Mean anomaly:     206.1247 deg
Mean motion:   14.29316736 rev/day
Decay rate:       -3.2e-07 rev/day^2
Epoch rev:           89485
Checksum:              331

Satellite: IO-26
Catalog number: 22826
Epoch time:      10327.65907085
Element set:    0421
Inclination:      098.4997 deg
RA of node:       272.1747 deg
Eccentricity:    0.0009330
Arg of perigee:   149.8880 deg
Mean anomaly:     210.2838 deg
Mean motion:   14.29575256 rev/day
Decay rate:        2.4e-07 rev/day^2
Epoch rev:           89494
Checksum:              338

Satellite: GO-32
Catalog number: 25397
Epoch time:      10327.55299491
Element set:     339
Inclination:      098.3163 deg
RA of node:       326.2570 deg
Eccentricity:    0.0001874
Arg of perigee:   127.3099 deg
Mean anomaly:     232.8274 deg
Mean motion:   14.23190291 rev/day
Decay rate:        1.3e-07 rev/day^2
Epoch rev:           64271
Checksum:              304

Satellite: NO-44
Catalog number: 26931
Epoch time:      10327.57296607
Element set:    0615
Inclination:      067.0498 deg
RA of node:       153.3182 deg
Eccentricity:    0.0005844
Arg of perigee:   273.3374 deg
Mean anomaly:     086.7048 deg
Mean motion:   14.29622336 rev/day
Decay rate:       -3.1e-07 rev/day^2
Epoch rev:           47753
Checksum:              316

